Weather History for Atlantic City, NJ

Change the Weather History Date:

Monday, June 2, 2014

  Actual Average Record
Temperature  
Mean Temperature 61 °F 67 °F  
Max Temperature 78 °F 76 °F 95 °F (1923)
Min Temperature 43 °F 57 °F 39 °F (1966)
Degree Days  
Heating Degree Days 4 2  
Month to date heating degree days 10 4  
Since 1 June heating degree days 10 4  
Since 1 July heating degree days 5307 4882  
Cooling Degree Days 0 4  
Month to date cooling degree days 0 8  
Year to date cooling degree days 36 72  
Since 1 June cooling degree days 0 8  
Growing Degree Days 10 (Base 50)    
Moisture  
Dew Point 48 °F    
Average Humidity 66    
Maximum Humidity 96    
Minimum Humidity 36    
Precipitation  
Precipitation 0.00 in 0.11 in 1.25 in (1974)
Month to date precipitation 0.00 0.22  
Year to date precipitation 20.18 17.50  
Snow  
Snow 0.00 in 0.00 in 0.00 in (1903)
Month to date snowfall 0.0 0.0  
Since 1 June snowfall 0.0 0.0  
Since 1 July snowfall 43.8 16.5  
Snow Depth 0.00 in    
Sea Level Pressure  
Sea Level Pressure 30.19 in    
Wind  
Wind Speed 7 mph (SSW)    
Max Wind Speed 16 mph    
Max Gust Speed 22 mph    
Visibility 10 miles    
Events      
T = Trace of Precipitation, MM = Missing Value Source: NWS Daily Summary

Daily Weather History Graph

Daily Weather History Graph

Search for Another Location

Airport:

Trip Planner

Search our weather history database for the weather conditions in past years. The results will help you decide how hot, cold, wet, or windy it might be!

Date:

Astronomy

Jun. 02, 2014 Rise Set
Actual Time 5:32 AM EDT 8:20 PM EDT
Civil Twilight 5:00 AM EDT 8:51 PM EDT
Nautical Twilight 4:21 AM EDT 9:32 PM EDT
Astronomical Twilight 3:35 AM EDT 10:17 PM EDT
Moon 9:57 AM EDT (6/2) 11:48 PM EDT (6/2)
Length of Visible Light 15h 50m
Length of Day
14h 47m
Waxing Crescent, 21% of the Moon is Illuminated
Jun 2
Waxing Crescent
Jun 5
First Quarter
Jun 13
Full
Jun 19
Last Quarter
Jun 27
New

Hourly Weather History & Observations

Time (EDT) Temp. Dew Point Humidity Pressure Visibility Wind Dir Wind Speed Gust Speed Precip Events Conditions
12:54 AM 52.0 °F 46.0 °F 80% 30.30 in 10.0 mi West 3.5 mph - N/A   Clear
1:54 AM 52.0 °F 46.9 °F 83% 30.30 in 10.0 mi Calm Calm - N/A   Clear
2:54 AM 46.9 °F 43.0 °F 86% 30.28 in 10.0 mi Calm Calm - N/A   Clear
3:54 AM 44.1 °F 42.1 °F 93% 30.28 in 10.0 mi Calm Calm - N/A   Clear
4:54 AM 44.1 °F 41.0 °F 89% 30.27 in 10.0 mi Calm Calm - N/A   Clear
5:54 AM 43.0 °F 41.0 °F 93% 30.27 in 10.0 mi Calm Calm - N/A   Clear
6:54 AM 54.0 °F 50.0 °F 86% 30.27 in 10.0 mi SW 3.5 mph - N/A   Clear
7:54 AM 62.1 °F 48.9 °F 62% 30.27 in 10.0 mi SW 3.5 mph - N/A   Clear
8:54 AM 66.9 °F 46.0 °F 47% 30.27 in 10.0 mi WSW 6.9 mph - N/A   Clear
9:54 AM 70.0 °F 45.0 °F 41% 30.26 in 10.0 mi WSW 8.1 mph - N/A   Clear
10:54 AM 73.9 °F 46.9 °F 38% 30.24 in 10.0 mi West 9.2 mph - N/A   Clear
11:54 AM 75.0 °F 46.9 °F 37% 30.22 in 10.0 mi SW 6.9 mph 16.1 mph N/A   Clear
12:54 PM 75.9 °F 48.9 °F 38% 30.20 in 10.0 mi SW 10.4 mph - N/A   Clear
1:54 PM 77.0 °F 51.8 °F 41% 30.17 in 10.0 mi North - - N/A   Clear
2:54 PM 77.0 °F 51.1 °F 40% 30.15 in 10.0 mi South 15.0 mph 21.9 mph N/A   Clear
3:54 PM 73.9 °F 48.9 °F 41% 30.14 in 10.0 mi South 11.5 mph - N/A   Clear
4:54 PM 73.0 °F 48.0 °F 41% 30.12 in 10.0 mi South 13.8 mph - N/A   Clear
5:54 PM 73.0 °F 48.9 °F 42% 30.10 in 10.0 mi South 12.7 mph - N/A   Clear
6:54 PM 71.1 °F 48.9 °F 45% 30.09 in 10.0 mi South 12.7 mph - N/A   Clear
7:54 PM 68.0 °F 48.9 °F 50% 30.08 in 10.0 mi South 8.1 mph - N/A   Clear
8:54 PM 64.9 °F 51.1 °F 61% 30.08 in 10.0 mi South 6.9 mph - N/A   Clear
9:54 PM 64.0 °F 54.0 °F 70% 30.09 in 10.0 mi South 6.9 mph - N/A   Clear
10:54 PM 63.0 °F 55.0 °F 75% 30.08 in 10.0 mi SSW 5.8 mph - N/A   Clear
11:54 PM 62.1 °F 55.0 °F 78% 30.08 in 10.0 mi SSW 5.8 mph - N/A   Clear